{"data":{"norad_id":40137,"epoch":"2026-05-25T03:31:08.073408Z","epoch_age_seconds":69212,"freshness":"FRESH","line1":"1 40137U 14051B   26145.14662122 -.00000036  00000+0  35477-5 0  9998","line2":"2 40137  98.7060 146.9636 0021189 240.6338 119.2728 14.30404358611256","mean_motion":14.30404358,"eccentricity":0.0021189,"inclination_deg":98.706,"raan_deg":146.9636,"arg_perigee_deg":240.6338,"mean_anomaly_deg":119.2728,"bstar":3.5477e-6,"rev_number":61125,"period_min":100.67083422574,"perigee_km":775.19016946999,"apogee_km":805.56890885966,"semimajor_km":7168.5165391648,"source":"CELESTRAK","updated_at":"2026-05-25T13:37:55.474159Z"}}